www.pogodaiklimat.ru

Погода и климат >> Архив погоды >> Мексика >> Вильяэрмоса


ПОГОДА в Вильяэрмосе

  • Прогноз погоды в Вильяэрмосе
  • Монитор погоды в Вильяэрмосе

АРХИВ ПОГОДЫ в Вильяэрмосе

Время (UTC), дата Ветер
(напр.,м/с)
 
Видим.   Явления Облачность Т
(С)
Тd
(С)
f
(%)
Тe
(С)
Тes
(С)
Комфортность P
(гПа)
Po
(гПа)
Тmin
(С)
Tmax
(С)
R
(мм)
R24
(мм)
S
(см)
21 12.06 С 2 7000 м 8/8 630 м
[Cu med, cong]
+34.0 +28.9 75 +57 +60 опасность
перегрева
1010.8 1010.0
00 13.06 С 2 7000 м 5/5 400 м
[Cu med, cong]
+31.5 +28.3 83 +52 +53 опасность
перегрева
1010.3 1009.5 +24.0 +34.0
03 13.06 штиль 0 4000 м 10/10 150 м
[Sc]
+26.0 +24.6 92 +37 +37 очень
душно
1013.6 1012.8
06 13.06 Ю 1 4000 м 10/10 330 м
[]
+24.0 +21.1 84 +30 +30 очень
душно
1015.8 1015.0 +34.0
09 13.06 В 1 4000 м 9/9 150 м
[]
+24.0 +22.6 92 +31 +31 очень
душно
1015.4 1014.6
12 13.06 СВ 1 4000 м 10/10 240 м
[Sc]
+24.5 +22.4 88 +32 +32 очень
душно
1016.3 1015.5 +24.0 +34.0 4
21 13.06 С 2 7000 м 4/4 1170 м
[Cu med, cong]
+34.3 +24.6 57 +47 +55 опасность
перегрева
1011.7 1010.9
00 14.06 СЗ 3 6000 м 5/1 800 м
[Cu med, cong Cs]
+29.3 +22.7 68 +39 +39 очень
душно
1012.0 1011.2 +24.0 +34.3
03 14.06 СВ 1 4000 м 10/0 1500 м
[Ac und]
+26.3 +22.2 78 +34 +34 очень
душно
1014.4 1013.6
06 14.06 В 2 4000 м 10/10 1500 м
[]
+25.1 +22.1 83 +32 +32 очень
душно
1015.1 1014.3 +34.3
09 14.06 В 2 3000 м 10/10 360 м
[]
+24.9 +21.8 83 +32 +32 очень
душно
1013.3 1012.5
12 14.06 ЮВ 1 5000 м 10/0 1500 м
[Ac und]
+24.8 +21.8 83 +32 +32 очень
душно
1013.1 1012.3 +24.6 +34.3
15 14.06 СВ 1 7000 м 9/9 500 м
[Sc]
+26.6 +22.3 77 +35 +36 очень
душно
1015.2 1014.4
18 14.06 Ю 2 7000 м 9/9 630 м
[Cu med, cong]
+27.5 +22.3 73 +36 +38 очень
душно
1014.6 1013.8 +24.6 +28.3
21 14.06 ЮЗ 2 7000 м 8/8 1020 м
[Cu med, cong]
+30.7 +22.4 61 +40 +42 очень
душно
1011.8 1011.0
00 15.06 СВ 2 8000 м 8/4 660 м
[Cu med, cong Ac und]
+27.8 +22.2 72 +36 +37 очень
душно
1011.9 1011.1 +24.6 +30.7
03 15.06 ЮВ 1 3000 м 8/4 480 м
[Sc Ac und]
+26.3 +22.2 78 +34 +34 очень
душно
1014.1 1013.3
06 15.06 ЮВ 1 3000 м {дождь, морось} 9/9 300 м
[]
+24.7 +22.2 86 +32 +32 очень
душно
1015.4 1014.6 +30.7 7
09 15.06 Ю 1 3000 м 9/0
[]
+24.5 +22.3 88 +32 +32 очень
душно
1013.3 1012.5
12 15.06 СВ 1 6000 м 9/0
[Ac und]
+24.5 +22.4 88 +32 +32 очень
душно
1013.9 1013.1 +24.5 +30.7
15 15.06 В 1 6000 м 10/10 450 м
[Sc diur, vesp]
+27.0 +23.1 79 +36 +36 очень
душно
1014.2 1013.4
18 15.06 Ю 1 7000 м 6/6 960 м
[Cu med, cong]
+32.5 +24.5 63 +45 +56 опасность
перегрева
1012.7 1011.9 +24.5 +32.5
21 15.06 СВ 1 7000 м 8/4 1300 м
[Cu med, cong Ci]
+35.5 +24.8 54 +49 +57 опасность
перегрева
1009.8 1009.0
00 16.06 В 1 5000 м 8/3 <50 м
[Cu med, cong Ci]
+33.8 +24.7 59 +47 +47 опасность
перегрева
1009.7 1008.9 +24.5 +35.5
03 16.06 В 1 3000 м 8/0 1500 м
[Ac und Ci]
+28.8 +23.0 71 +39 +39 очень
душно
1011.4 1010.6
06 16.06 В 1 3000 м 6/0
[Ac und]
+27.8 +23.0 75 +37 +37 очень
душно
1011.6 1010.8 +35.5
12 16.06 В 1 4000 м 8/4 480 м
[Sc diur, vesp Ci sp]
+26.5 +22.5 79 +35 +35 очень
душно
1010.8 1010.0 +26.5 +35.5
15 16.06 В 1 7000 м 5/5 800 м
[Cu med, cong]
+31.0 +24.2 67 +43 +49 опасность
перегрева
1011.5 1010.7
18 16.06 Ю 1 7000 м 6/6 1050 м
[Cu med, cong]
+34.5 +25.9 61 +50 +60 опасность
перегрева
1010.0 1009.2 +26.5 +34.5
21 16.06 В 2 7000 м 6/6 1000 м
[Cu med, cong]
+34.7 +26.6 63 +52 +57 опасность
перегрева
1007.7 1006.9
00 17.06 В 2 7000 м 5/5 1050 м
[Cu med, cong]
+33.5 +24.8 60 +47 +47 опасность
перегрева
1007.6 1006.8 +26.5 +36.5
03 17.06 ЮВ 1 4000 м 6/6 720 м
[Cu med, cong]
+31.5 +25.5 71 +46 +46 опасность
перегрева
1009.3 1008.5
06 17.06 В 1 4000 м 8/8 480 м
[]
+29.0 +25.0 79 +42 +42 опасность
перегрева
1010.2 1009.4 +36.5
09 17.06 СВ 2 4000 м 5/5 400 м
[Cu med, cong]
+27.5 +24.1 82 +38 +38 очень
душно
1009.1 1008.3
12 17.06 штиль 0 4000 м 6/0
[Ac und]
+26.5 +23.0 81 +35 +35 очень
душно
1009.7 1008.9 +26.5 +36.5
21 17.06 СВ 2 8000 м 3/1 1020 м
[Cu med, cong Ci fib]
+36.9 +28.4 62 +58 +70 опасность
перегрева
1007.9 1007.1
00 18.06 В 4 7000 м 1/1 840 м
[Cu med, cong]
+34.9 +27.9 67 +55 +56 опасность
перегрева
1007.8 1007.0 +26.5 +37.6
03 18.06 Ю 1 4000 м 5/0 1500 м
[Ac und]
+28.1 +23.6 77 +39 +39 очень
душно
1010.5 1009.7
06 18.06 В 1 4000 м 8/8 1500 м
[]
+27.6 +23.5 78 +37 +37 очень
душно
1011.1 1010.3 +37.6
09 18.06 СВ 1 3000 м 9/9 1500 м
[]
+28.4 +22.6 71 +38 +38 очень
душно
1010.0 1009.2
12 18.06 Ю 1 5000 м 6/0
[Ci]
+25.7 +21.8 79 +33 +33 очень
душно
1010.8 1010.0 +25.7 +37.6
21 18.06 СВ 2 8000 м 8/4 1080 м
[Cu med, cong Ci]
+37.0 +28.1 61 +58 +65 опасность
перегрева
1009.5 1008.7
00 19.06 В 3 5000 м 5/1 870 м
[Cu hum Ci sp]
+34.7 +27.4 66 +54 +54 опасность
перегрева
1009.1 1008.3 +25.7 +37.0
03 19.06 СЗ 2 3000 м ясно +30.6 +26.2 77 +46 +46 опасность
перегрева
1010.3 1009.5
06 19.06 С 2 3000 м 3/3 450 м
[Sc diur, vesp]
+29.3 +25.4 80 +43 +43 опасность
перегрева
1012.6 1011.8 +25.7 +37.0
09 19.06 В 2 3000 м ясно +28.8 +25.2 81 +42 +42 опасность
перегрева
1010.7 1009.9
12 19.06 В 2 4000 м 3/0 1500 м
[Ac und]
+27.0 +24.6 87 +38 +38 очень
душно
1011.1 1010.3 +27.0 +37.0

 

Местоположение метеостанции Вильяэрмоса (Мексика): широта 17.98 долгота -92.93 высота над уровнем моря 16 м.

В архиве по умолчанию представлена погода в Вильяэрмосе за последнюю неделю. Архивные данные за месяц целиком и за предыдущие месяцы, начиная с января 2011 года, Вы можете получить, выбрав интересующий диапазон дат из раскрывающегося списка и нажав кнопку "Ввод!".


*Определитесь, кто Вы:
робот инопланетянин человек

Внимание! Время в таблицах - всемирное. Для получения местного времени необходимо прибавить поправку, которая равна -6 ч.

Смотрите также архив погоды в соседних городах и на ближайших метеорологических станциях:

Погода в Тустла-Гутьерресе (Мексика) (138 км)
Погода в Сан-Кристобаль-де-лас-Касасе (Мексика) (140 км)
Погода в Коацакоалькосе (Мексика) (157 км)
Погода в Комитане (Мексика) (210 км)
Погода в Арриаге (Мексика) (220 км)
Погода в Салина-Крусе (Мексика) (313 км)
Погода в Кампече (Мексика) (326 км)
Погода в Уэуэтенанго (Гватемала) (335 км)
Погода во Флоресе (Гватемала) (344 км)
Погода в Тапачуле (Мексика) (348 км)

Пояснения к столбцам:

Ветер - указаны скорость ветра в м/с - средняя за 10 мин, порывы в срок и между сроками (в фигурных скобках) и направление, откуда дует ветер: С - северный, СВ - северо-восточный, В - восточный, ЮВ - юго-восточный, Ю - южный, ЮЗ - юго-западный, З - западный, СЗ - северо-западный.
Видимость - горизонтальная дальность видимости в метрах или километрах. При видимости от 1 до 10 км при отсутствии осадков обычно наблюдается дымка, при ухудшении видимости до 1 км и менее - туман. В сухую погоду видимость может ухудшаться дымом, пылью или мглою.
Явления - указаны атмосферные явления, наблюдавшиеся в срок или в последний час перед сроком; фигурными скобками обозначены явления, наблюдавшиеся между сроками (за 1-3 часа до срока); квадратными скобками обозначены град или гололедные отложения с указанием их диаметра в мм.
Облачность - указаны через наклонную черту общая и нижняя облачность в баллах и высота нижней границы облаков в метрах; квадратными скобками обозначены формы облаков: Ci - перистые, Cs - перисто-слоистые, Cc - перисто-кучевые, Ac - высококучевые, As - высокослоистые, Sc - слоисто-кучевые, Ns - слоисто-дождевые, Cu - кучевые, Cb - кучево-дождевые. Подробнее классификацию облаков см. в Атласе облаков (PDF).
T - Температура воздуха - температура, измеренная на высоте 2 м над землей.
Td - Температура точки росы - температура, при понижении до которой содержащийся в воздухе водяной пар достигнет насыщения.
f - Относительная влажность воздуха - влажноcть воздуха, измеренная на высоте 2 м над землей.
Te - Эффективная температура - температура, которую ощущает одетый по сезону человек в тени. Характеристика душности погоды. При расчете учитывается влияние влажности воздуха и скорости ветра на теплоощущения человека.
Tes - Эффективная температура на солнце - температура, которую ощущает человек, с поправкой на солнечный нагрев. Характеристика знойности погоды. Зависит от высоты солнца над горизонтом, облачности и скорости ветра. Ночью, в пасмурную погоду, а также при ветре 12 м/с и более поправка равна нулю.
P - Атмосферное давление - приведенное к уровню моря атмосферное давление.
Po - Атмосферное давление - измеренное на уровне метеостанции атмосферное давление.
Tmin - Минимальная температура - минимум температуры воздуха на высоте 2 м над землей.
Tmax - Максимальная температура - максимум температуры воздуха на высоте 2 м над землей.
R - Количество осадков - Количество выпавших осадков за период времени, мм. При наведении курсора мыши на число - период времени, за который выпало указанное количество осадков.
R24 - Количество осадков - Количество выпавших осадков за 24 часа, мм.
S - Снежный покров - Высота снежного покрова, см. При наведении курсора мыши на число - состояние снежного покрова и степень покрытия местности в баллах.